Waarnemingen

Advertentie
Mijn weer
Antwerpen, België (6450): temperatuur & dauwpunt: 30.11.2019 10:00:00 - 06.12.2019 10:00:00 (CET)Antwerpen, België (6450): windsnelheid & windstoten: 30.11.2019 10:00:00 - 06.12.2019 10:00:00 (CET)Antwerpen, België (6450): windrichting: 30.11.2019 10:00:00 - 06.12.2019 10:00:00 (CET)Antwerpen, België (6450): luchtdruk: 30.11.2019 10:00:00 - 06.12.2019 10:00:00 (CET)Antwerpen, België (6450): zicht: 30.11.2019 10:00:00 - 06.12.2019 10:00:00 (CET)
Datum & Tijd tt [°C] td [°C] ff [km/u] ff [kn] fx [km/u] fx [kn] dd ppp [hPa] vv [km]
06.12.2019 10:00:00 3,7 2,5 24 13 - - ZZW 1012,1 4,8
06.12.2019 09:00:00 3,4 2,3 24 13 36 19 ZZW 1012,6 3,8
06.12.2019 08:00:00 3,3 1,9 24 13 40 21 ZZW 1013,0 6
06.12.2019 07:00:00 3,2 1,7 22 12 - - ZZW 1013,3 6
06.12.2019 06:00:00 3,1 1,3 26 14 43 23 ZZW 1013,7 8
06.12.2019 05:00:00 3,1 1,0 24 13 36 19 ZZW 1014,2 9
06.12.2019 04:00:00 3,0 1,2 22 12 - - ZZW 1014,7 7
06.12.2019 03:00:00 2,8 1,1 22 12 40 21 ZZW 1015,3 7
06.12.2019 02:00:00 2,5 0,9 28 15 40 21 ZZW 1015,8 6
06.12.2019 01:00:00 2,2 0,6 22 12 - - ZZW 1016,7 5
06.12.2019 00:00:00 1,8 0,3 24 13 40 21 ZW 1017,8 5
05.12.2019 23:00:00 1,8 0,2 21 11 32 18 ZW 1018,3 6
05.12.2019 22:00:00 1,8 0,2 21 11 - - ZZW 1018,5 6
05.12.2019 21:00:00 2,2 0,6 24 13 32 18 ZZW 1018,9 6
05.12.2019 20:00:00 1,9 1,2 16 9 32 18 ZZW 1019,4 2,5
05.12.2019 19:00:00 1,7 0,8 21 11 - - ZZW 1019,9 2,5
05.12.2019 18:00:00 2,1 1,0 15 8 29 16 ZW 1020,4 3,5
05.12.2019 17:00:00 2,7 1,4 13 7 29 16 ZW 1020,6 4,5
05.12.2019 16:00:00 3,5 1,7 18 10 - - ZW 1020,8 6
05.12.2019 15:00:00 3,7 1,6 16 9 25 14 ZW 1021,0 6
05.12.2019 14:00:00 3,6 1,6 13 7 22 12 ZW 1021,3 5
05.12.2019 13:00:00 3,0 1,5 9 5 - - ZZW 1021,5 4,5
05.12.2019 12:00:00 1,9 0,7 13 7 22 12 ZW 1021,7 3,0
05.12.2019 11:00:00 0,9 -0,2 9 5 14 8 ZZW 1022,2 3,0
05.12.2019 10:00:00 -0,3 -1,5 8 4 - - Z 1022,3 3,0
05.12.2019 09:00:00 -2,2 -2,9 4 2 11 6 OZO 1022,4 1,5
05.12.2019 08:00:00 -2,5 -3,1 5 3 7 4 ZZO 1021,9 0,3
05.12.2019 07:00:00 -2,0 -2,2 4 2 - - - 1021,7 0,3
05.12.2019 06:00:00 -1,5 -2,0 8 4 11 6 ZZO 1021,2 0,6
05.12.2019 05:00:00 -1,2 -1,6 4 2 7 4 - 1021,2 0,4
05.12.2019 04:00:00 -1,4 -1,6 4 2 - - - 1021,2 0,4
05.12.2019 03:00:00 -1,6 -1,6 2 1 11 6 - 1020,9 0,5
05.12.2019 02:00:00 -1,8 -2,2 5 3 7 4 ZO 1020,9 0,3
05.12.2019 01:00:00 -1,7 -1,7 2 1 - - - 1021,4 0,4
05.12.2019 00:00:00 -1,9 -2,4 5 3 11 6 OZO 1021,1 0,4
04.12.2019 23:00:00 -1,7 -2,2 5 3 7 4 OZO 1020,9 0,2
04.12.2019 22:00:00 -1,4 -1,8 5 3 - - O 1021,2 0,3
04.12.2019 21:00:00 0,1 -0,3 5 3 11 6 ZO 1021,3 2,2
04.12.2019 20:00:00 0,9 0,2 2 1 7 4 - 1020,6 4,0
04.12.2019 19:00:00 2,4 1,4 2 1 - - O 1021,0 7
04.12.2019 18:00:00 3,5 1,7 5 3 11 6 ONO 1020,9 10
04.12.2019 17:00:00 3,5 1,1 8 4 7 4 ONO 1020,9 10
04.12.2019 16:00:00 6,4 2,3 4 2 - - NO 1020,7 10
04.12.2019 15:00:00 7,0 2,9 5 3 11 6 NO 1020,8 10
04.12.2019 14:00:00 6,8 3,0 2 1 7 4 - 1021,5 10
04.12.2019 13:00:00 5,3 2,4 5 3 - - ONO 1021,9 10
04.12.2019 12:00:00 4,2 1,9 5 3 7 4 OZO 1022,7 10
04.12.2019 11:00:00 2,1 0,8 4 2 4 2 O 1023,4 10
04.12.2019 10:00:00 -0,4 -1,3 2 1 - - - 1023,5 9
04.12.2019 09:00:00 -1,3 -2,2 5 3 7 4 O 1023,2 4,5
04.12.2019 08:00:00 -1,7 -2,4 4 2 7 4 ZZO 1023,4 2,5
04.12.2019 07:00:00 -2,5 -2,7 5 3 - - ZZO 1023,4 2,5
04.12.2019 06:00:00 -3,0 -3,5 5 3 7 4 ZZO 1023,7 1,5
04.12.2019 05:00:00 -2,5 -2,5 2 1 4 2 O 1023,8 0,6
04.12.2019 04:00:00 -1,8 -2,2 4 2 - - O 1024,5 0,5
04.12.2019 03:00:00 -1,4 -1,5 4 2 4 2 OZO 1024,9 0,5
04.12.2019 02:00:00 -0,8 -1,6 4 2 7 4 ZO 1025,2 0,7
04.12.2019 01:00:00 -1,0 -1,5 4 2 - - - 1025,9 1,5
04.12.2019 00:00:00 -1,2 -1,2 4 2 4 2 ZO 1026,3 0,8
03.12.2019 23:00:00 0,6 -0,1 2 1 4 2 - 1026,6 2,0
03.12.2019 22:00:00 1,2 0,5 4 2 - - Z 1026,7 2,4
03.12.2019 21:00:00 2,1 1,2 8 4 11 6 Z 1026,9 2,6
03.12.2019 20:00:00 1,9 1,3 2 1 11 6 - 1027,3 0,5
03.12.2019 19:00:00 2,3 1,8 9 5 - - Z 1027,5 0,8
03.12.2019 18:00:00 3,0 2,1 9 5 14 8 ZW 1027,6 3,0
03.12.2019 17:00:00 4,3 2,7 8 4 18 10 ZZW 1027,7 7
03.12.2019 16:00:00 5,7 3,0 9 5 - - ZW 1027,7 10
03.12.2019 15:00:00 7,3 3,5 13 7 22 12 ZW 1027,9 10
03.12.2019 14:00:00 7,2 3,5 11 6 18 10 ZW 1028,6 10
03.12.2019 13:00:00 6,5 3,3 11 6 - - ZZW 1029,0 10
03.12.2019 12:00:00 5,4 2,8 8 4 11 6 ZZW 1029,5 8
03.12.2019 11:00:00 3,9 2,2 8 4 11 6 ZZW 1030,1 5
03.12.2019 10:00:00 2,6 1,4 8 4 - - ZZW 1030,0 3,5
03.12.2019 09:00:00 1,8 0,9 4 2 7 4 Z 1030,0 3,5
03.12.2019 08:00:00 1,9 0,9 5 3 7 4 ZZW 1029,9 2,5
03.12.2019 07:00:00 1,7 1,0 4 2 - - - 1029,7 3,0
03.12.2019 06:00:00 2,0 1,2 5 3 7 4 ZZW 1029,8 2,7
03.12.2019 05:00:00 2,0 0,8 5 3 7 4 ZZW 1029,8 1,0
03.12.2019 04:00:00 4,9 3,7 4 2 - - W 1029,9 9
03.12.2019 03:00:00 5,6 4,1 9 5 11 6 W 1029,9 10
03.12.2019 02:00:00 6,4 4,6 9 5 14 8 WNW 1030,0 10
03.12.2019 01:00:00 6,7 4,9 9 5 - - W 1030,3 10
03.12.2019 00:00:00 6,8 5,0 8 4 11 6 WNW 1030,2 10
02.12.2019 23:00:00 7,0 5,2 9 5 11 6 W 1030,2 10
02.12.2019 22:00:00 6,9 5,2 8 4 - - W 1029,8 10
02.12.2019 21:00:00 6,7 5,2 8 4 11 6 W 1029,8 10
02.12.2019 20:00:00 7,4 5,6 9 5 11 6 W 1029,4 10
02.12.2019 19:00:00 7,7 5,6 5 3 - - W 1029,2 10
02.12.2019 18:00:00 7,9 5,3 9 5 18 10 NW 1028,9 10
02.12.2019 17:00:00 8,0 4,6 9 5 25 14 NW 1028,7 10
02.12.2019 16:00:00 8,2 4,4 11 6 - - NW 1028,5 10
02.12.2019 15:00:00 8,4 5,0 15 8 25 14 NNW 1028,2 10
02.12.2019 14:00:00 8,5 5,3 11 6 22 12 WNW 1028,2 10
02.12.2019 13:00:00 7,4 5,0 9 5 - - W 1028,3 10
02.12.2019 12:00:00 5,9 3,8 9 5 14 8 W 1028,6 10
02.12.2019 11:00:00 4,3 2,8 7 4 11 6 W 1028,4 10
02.12.2019 10:00:00 3,6 2,6 5 3 - - WZW 1027,7 10
02.12.2019 09:00:00 2,7 1,8 8 4 11 6 W 1027,0 8
02.12.2019 08:00:00 2,9 2,0 8 4 14 8 W 1026,6 8
02.12.2019 07:00:00 2,3 1,3 8 4 - - WNW 1026,5 9
02.12.2019 06:00:00 0,7 0,3 5 3 7 4 W 1026,2 1,7
02.12.2019 05:00:00 1,3 0,4 8 4 7 4 W 1025,7 3,2
02.12.2019 04:00:00 -1,7 -2,0 4 2 - - W 1025,6 1,7
02.12.2019 03:00:00 -0,2 -0,9 5 3 7 4 WNW 1025,6 1,1
02.12.2019 02:00:00 -0,3 -1,0 2 1 7 4 WNW 1025,0 4,9
02.12.2019 01:00:00 -0,3 -1,1 5 3 - - NW 1024,7 7
02.12.2019 00:00:00 1,2 0,0 4 2 14 8 - 1024,6 10
01.12.2019 23:00:00 1,1 -0,4 8 4 14 8 NNW 1024,3 10
01.12.2019 22:00:00 1,8 0,0 9 5 - - NNO 1023,8 10
01.12.2019 21:00:00 2,0 0,3 9 5 14 8 NNO 1023,3 10
01.12.2019 20:00:00 2,1 0,2 9 5 22 12 NNO 1022,9 10
01.12.2019 19:00:00 2,7 -0,3 9 5 - - NNO 1022,4 10
01.12.2019 18:00:00 3,5 -0,2 11 6 22 12 NNO 1021,6 10
01.12.2019 17:00:00 3,6 0,1 15 8 22 12 NNO 1020,8 10
01.12.2019 16:00:00 3,6 0,3 13 7 - - NNO 1020,4 10
01.12.2019 15:00:00 4,1 0,0 15 8 25 14 NO 1020,0 10
01.12.2019 14:00:00 3,9 0,0 11 6 25 14 NO 1020,2 10
01.12.2019 13:00:00 3,3 -0,1 15 8 - - ONO 1020,3 10
01.12.2019 12:00:00 2,5 -0,2 15 8 25 14 NO 1021,0 10
01.12.2019 11:00:00 2,5 -0,8 15 8 25 14 NO 1020,6 10
01.12.2019 10:00:00 1,9 -0,7 15 8 - - NO 1020,0 10
01.12.2019 09:00:00 1,4 -0,6 15 8 25 14 NO 1019,8 10
01.12.2019 08:00:00 1,6 -0,5 16 9 29 16 NO 1019,2 10
01.12.2019 07:00:00 1,4 -0,4 16 9 - - ONO 1019,3 10
01.12.2019 06:00:00 1,3 -0,4 13 7 22 12 NO 1019,7 8
01.12.2019 05:00:00 1,5 -0,1 15 8 25 14 ONO 1019,8 9
01.12.2019 04:00:00 1,8 0,3 15 8 - - ONO 1020,5 8
01.12.2019 03:00:00 1,7 0,3 9 5 18 10 ONO 1021,3 7
01.12.2019 02:00:00 1,8 0,6 9 5 14 8 ONO 1021,4 7
01.12.2019 01:00:00 1,9 0,7 11 6 - - ONO 1021,6 -
01.12.2019 00:00:00 2,0 0,9 9 5 14 8 ONO 1021,7 6
30.11.2019 23:00:00 2,2 1,3 9 5 14 8 ONO 1021,9 6
30.11.2019 22:00:00 2,6 1,5 11 6 - - ONO 1022,5 6
30.11.2019 21:00:00 1,5 0,5 8 4 11 6 O 1023,4 10
30.11.2019 20:00:00 1,9 0,7 8 4 11 6 O 1023,2 10
30.11.2019 19:00:00 2,2 1,1 8 4 - - O 1023,0 10
30.11.2019 18:00:00 3,7 2,0 8 4 14 8 ONO 1022,9 10
30.11.2019 17:00:00 4,4 2,1 8 4 14 8 O 1023,0 10
30.11.2019 16:00:00 5,5 3,0 9 5 - - O 1023,0 10
30.11.2019 15:00:00 6,7 3,3 9 5 14 8 O 1023,3 10
30.11.2019 14:00:00 6,8 3,3 8 4 11 6 O 1023,8 10
30.11.2019 13:00:00 6,5 3,5 5 3 - - ZZO 1024,2 10
30.11.2019 12:00:00 6,2 3,2 2 1 7 4 - 1024,6 10
30.11.2019 11:00:00 3,1 2,3 5 3 7 4 ZO 1024,7 8
30.11.2019 10:00:00 0,4 -0,3 4 2 - - OZO 1024,1 5

tt = temperatuur
td = dauwpunt
ff = windsnelheid
fx = windstoten
dd = windrichting
ppp = luchtdruk
vv = zicht

Weerstations in de omgeving